Zurück zum Katalog

ONEWEB-0285

AktivKommunikationPO
NORAD 49075·PAYLOAD·🇬🇧 United Kingdom

Gestartet Aug 21, 2021 von Baikonur Cosmodrome

Loading…

Nächste Überflüge (nächste 24 Stunden)

TLE

AktuellSource: CelesTrak SupGP

Epoche: Sep 14, 2026, 15:42 UTC

1 49075C 21075A   26257.65466850  .00001927  00000+0  53630-2 0  2576
2 49075  87.8990 332.9029 0001938 106.9579 327.4707 13.12446640    16

Verfolge ONEWEB-0285 in Echtzeit mit AllMySat

Download on the App Store